User: anonymous   Login
Location: Unspecified
(0.0000°N, 0.0000°E)
Time: 15:31:58
(UTC+00:00)
Language:

COSMOS-2409 - Orbit

View from above orbital plane
View from above orbital plane
View from above satellite
View from above satellite

Ground track
Ground track

The orbit data is extracted from the following two-line orbital elements,

1 28420U 04037B   18267.72195455 +.00000007 +00000-0 -19572-4 0  9998
2 28420 082.4829 295.8733 0013075 348.5551 011.5234 12.45272742636529
Epoch (UTC): 24 September 2018 17:19:36
Eccentricity: 0.0013075
inclination: 82.4829°
perigee height: 1474 km
apogee height: 1494 km
right ascension of ascending node: 295.8733°
argument of perigee: 348.5551°
revolutions per day: 12.45272742
mean anomaly at epoch: 11.5234°
orbit number at epoch: 63652

The dashed part of the orbit path shows where the satellite is in the earth's shadow,  

DLR